CAPE
2 3 3 2 5 5 2 1 2 1 1 0 0 1 1 1 0 0 0 0 0 0 0 0 0 0 0 0 0 0 0 0 0 0 0 0 0 0 0 0 0 0 0 0 0
1 3 3 4 4 3 3 3 2 1 1 1 1 1 1 0 0 0 0 0 0 0 0 0 0 0 0 0 0 0 0 0 0 0 0 0 0 0 0 0 0 0 0 0 0
1 1 1 4 4 3 3 2 2 0 0 0 0 1 2 0 0 0 0 0 0 0 0 0 0 0 0 0 0 0 0 0 0 0 0 0 0 0 0 0 0 0 0 0 0
1 2 6 7 4 4 4 4 4 3 2 1 0 3 1 0 0 0 0 0 0 0 0 0 0 0 0 0 0 0 0 0 0 0 0 0 0 0 0 0 0 0 0 0 0
2 3 3 2 2 2 3 2 1 3 5 6 3 3 0 0 0 0 0 0 0 0 0 0 0 0 0 0 0 0 0 0 0 0 0 0 0 0 0 0 0 0 0 0 0
0 0 0 2 3 4 3 1 1 3 1 3 0 2 1 0 0 0 0 0 0 0 0 0 0 0 0 0 0 0 0 0 0 0 0 0 0 0 0 0 0 0 0 0 0
0 0 2 2 2 0 0 0 0 2 2 3 2 1 1 0 0 0 0 0 0 0 0 0 0 0 0 0 0 0 0 0 0 0 0 0 0 0 0 0 0 0 0 0 0
1 1 2 1 0 0 0 0 0 0 2 1 2 0 0 0 0 0 0 0 0 0 0 0 0 0 0 0 0 0 0 0 0 0 0 0 0 0 0 0 0 0 0 0 0
3 1 1 2 1 2 0 0 0 0 0 0 0 0 0 0 0 0 0 0 0 0 0 0 0 0 0 0 0 0 0 0 0 0 0 0 0 0 0 0 0 0 0 0 0
2 1 1 2 2 1 0 0 0 0 0 0 0 0 0 0 0 0 0 0 0 0 0 0 0 0 0 0 0 0 0 0 0 0 0 0 0 0 0 0 0 0 0 0 0
2 0 0 0 0 0 0 0 0 0 0 0 0 0 0 0 0 0 0 0 0 0 0 0 0 0 0 0 0 0 0 0 0 0 0 0 0 0 0 0 0 0 0 0 0
1 0 0 0 0 0 0 0 0 0 0 0 0 0 0 0 0 0 0 0 0 0 0 0 0 0 0 0 0 0 0 0 0 0 0 0 0 0 0 0 0 0 0 0 0
0 0 0 0 0 0 0 0 0 0 0 0 0 0 0 0 0 0 0 0 0 0 0 0 0 0 0 0 0 0 0 0 0 0 0 0 0 0 0 0 0 0 0 0 0
0 0 0 0 0 0 0 0 0 0 0 0 0 0 0 0 0 0 0 0 0 0 0 0 0 0 0 0 0 0 0 0 0 0 0 0 0 0 0 0 0 0 0 0 0
0 0 0 0 0 0 0 0 0 0 0 0 0 0 0 0 0 7 15 5 5 0 0 0 0 0 0 0 0 0 0 0 0 0 0 0 0 0 0 0 0 0 0 0 0
1 1 1 0 0 0 0 0 0 0 0 0 0 0 0 0 0 0 3 69 6 1 0 0 0 0 0 0 0 0 0 0 0 0 0 0 0 0 0 0 0 0 0 0 0
0 0 0 0 0 0 0 0 0 0 0 0 0 0 0 0 0 0 0 0 1 0 12 36 0 0 0 0 0 0 0 0 0 0 0 0 0 0 0 0 0 0 0 0 0
0 0 0 0 0 0 0 0 0 0 0 0 0 0 0 8 2 0 0 0 6 0 0 14 0 0 0 0 0 0 0 0 0 0 0 0 0 0 0 0 0 0 0 0 0
0 0 0 0 0 0 0 0 0 2 1 2 0 0 0 5 14 0 0 6 14 4 2 0 0 2 3 0 0 0 0 0 0 0 0 0 0 0 0 0 0 0 0 0 0
0 0 0 0 0 0 0 0 0 1 4 0 0 1 0 0 0 4 4 25 2 1 5 4 1 0 0 0 0 0 0 0 0 0 0 0 0 0 0 0 0 0 0 0 0
0 0 0 0 0 0 0 0 0 0 0 0 1 6 0 0 0 0 5 11 22 1 0 0 0 0 0 0 0 0 0 0 0 0 0 0 0 0 0 0 0 0 0 0 0
0 0 0 0 0 0 0 0 0 0 2 0 0 0 0 0 0 1 0 0 30 5 0 0 0 0 0 0 0 0 0 0 0 0 0 0 0 0 0 0 0 0 0 0 0
0 0 0 0 0 0 0 0 0 0 0 3 2 1 0 0 4 0 0 8 0 1 2 1 0 0 0 0 0 0 0 0 0 0 0 0 0 0 0 0 0 0 0 0 0
0 0 0 0 0 0 0 0 0 1 5 2 0 4 4 3 0 3 0 0 0 0 1 17 0 0 0 0 0 0 0 9 0 0 0 0 0 0 0 0 0 0 0 25 108
0 0 0 0 0 0 0 0 0 4 6 7 0 2 7 7 3 1 0 0 0 0 0 18 0 0 0 0 0 0 0 0 0 0 0 0 0 0 0 0 0 0 0 51 224
0 0 0 0 0 0 0 0 0 0 2 0 3 1 0 0 2 2 3 1 1 0 2 10 3 3 0 0 0 0 0 0 0 0 0 0 0 0 0 0 0 12 4 113 294
0 0 2 0 0 0 0 0 0 3 0 1 4 6 0 0 0 0 0 0 0 0 5 18 14 1 0 0 0 0 0 0 0 0 0 0 0 0 0 0 0 147 144 228 324
CIN
-0 -0 0 -0 -0 -0 -0 0 0 0 0 0 -0 -0 -0 0 0 0 0 0 0 0 0 0 0 0 0 0 0 0 0 0 0 0 0 0 0 0 0 0 0 0 0 0 0
-1 -0 -0 -0 0 -0 0 0 0 0 0 0 0 0 0 0 0 0 0 0 0 0 0 0 0 0 0 0 0 0 0 0 0 0 0 0 0 0 0 0 0 0 0 0 0
0 0 -0 0 -0 0 -0 -0 -0 0 0 0 0 0 -0 0 0 0 0 0 0 0 0 0 0 0 0 0 0 0 0 0 0 0 0 0 0 0 0 0 0 0 0 0 0
-1 -0 0 0 -0 -0 0 0 -0 0 0 0 0 0 0 0 0 0 0 0 0 0 0 0 0 0 0 0 0 0 0 0 0 0 0 0 0 0 0 0 0 0 0 0 0
-0 -0 -0 0 -0 0 0 0 0 0 0 0 0 -0 0 0 0 0 0 0 0 0 0 0 0 0 0 0 0 0 0 0 0 0 0 0 0 0 0 0 0 0 0 0 0
0 0 0 0 0 0 0 0 0 0 0 0 -1 -1 -0 0 0 0 0 0 0 0 0 0 0 0 0 0 0 0 0 0 0 0 0 0 0 0 0 0 0 0 0 0 0
0 -0 0 0 0 0 0 0 0 0 0 0 -0 -0 0 0 0 0 0 0 0 0 0 0 0 0 0 0 0 0 0 0 0 0 0 0 0 0 0 0 0 0 0 0 0
-0 -0 -0 0 0 0 0 0 0 0 0 -0 -1 -0 0 0 0 0 0 0 0 0 0 0 0 0 0 0 0 0 0 0 0 0 0 0 0 0 0 0 0 0 0 0 0
0 0 0 0 -0 0 0 0 0 0 0 0 0 0 0 0 0 0 0 0 0 0 0 0 0 0 0 0 0 0 0 0 0 0 0 0 0 0 0 0 0 0 0 0 0
-0 0 0 0 0 0 0 0 0 0 0 0 0 0 0 0 0 0 0 0 0 0 0 0 0 0 0 0 0 0 0 0 0 0 0 0 0 0 0 0 0 0 0 0 0
0 0 0 0 0 0 0 0 0 0 0 0 0 0 0 0 0 0 0 0 0 0 0 0 0 0 0 0 0 0 0 0 0 0 0 0 0 0 0 0 0 0 0 0 0
0 0 0 0 0 0 0 0 0 0 0 0 0 0 0 0 0 0 0 0 0 0 0 0 0 0 0 0 0 0 0 0 0 0 0 0 0 0 0 0 0 0 0 0 0
0 0 0 0 0 0 0 0 0 0 0 0 0 0 0 0 0 0 0 0 0 0 0 0 0 0 0 0 0 0 0 0 0 0 0 0 0 0 0 0 0 0 0 0 0
0 0 0 0 0 0 0 0 0 0 0 0 0 0 0 0 0 0 0 0 0 0 0 0 0 0 0 0 0 0 0 0 0 0 0 0 0 0 0 0 0 0 0 0 0
0 0 0 0 0 0 0 0 0 0 0 0 0 0 0 0 0 -41 -57 -2 -17 -1 0 0 0 0 0 0 0 0 0 0 0 0 0 0 0 0 0 0 0 0 0 0 0
0 0 0 0 0 0 0 0 0 0 0 0 0 0 0 0 0 0 -34 -34 -32 -7 0 0 0 0 0 0 0 0 0 0 0 0 0 0 0 0 0 0 0 0 0 0 0
0 0 0 0 0 0 0 0 0 0 0 0 0 0 0 0 0 0 0 0 -13 -10 -12 -9 -1 0 0 0 0 0 0 0 0 0 0 0 0 0 0 0 0 0 0 0 0
0 0 0 0 0 0 0 0 0 0 0 0 0 0 0 -9 -50 0 0 0 -43 0 0 -20 -1 0 0 0 0 0 0 0 0 0 0 0 0 0 0 0 0 0 0 0 0
0 0 0 0 0 0 0 0 0 -2 -4 -3 0 0 0 -33 -29 -26 0 -17 -16 -15 -9 0 0 -12 -15 0 0 0 0 0 0 0 0 0 0 0 0 0 0 0 0 0 0
0 0 0 0 0 0 0 0 0 -7 -1 -0 0 -1 0 0 0 -53 -46 -41 -34 -19 -38 -24 -17 -10 0 0 0 0 0 0 0 0 0 0 0 0 0 0 0 0 0 0 0
0 0 0 0 0 0 0 0 0 0 0 0 -3 -6 -2 0 0 -23 -22 -47 -39 -33 0 -14 0 0 -48 0 0 0 0 0 0 0 0 0 0 0 0 0 0 0 0 0 0
0 0 0 0 0 0 0 0 0 0 -21 0 -1 -0 0 -6 0 -6 -1 0 -33 -57 0 0 0 0 0 0 0 0 0 0 0 0 0 0 0 0 0 0 0 0 0 0 0
0 0 0 0 0 0 0 0 0 -0 0 -2 -4 -4 -1 -5 -4 0 0 -44 0 -10 -17 -15 0 0 0 0 -13 0 0 0 0 0 0 0 0 0 0 0 0 0 0 0 0
0 0 0 0 0 0 0 0 0 -9 -6 -2 0 -6 -5 -1 -2 -4 -0 0 0 0 -12 -7 0 0 0 0 0 0 0 -12 0 0 0 0 0 0 0 0 0 0 0 -444 -458
0 0 0 0 0 0 0 -0 0 0 -2 -4 -4 -5 -0 0 -0 -8 0 0 0 0 0 -2 0 0 0 0 0 0 0 0 0 0 0 0 0 0 0 0 0 0 0 -426 -362
0 0 0 0 0 0 0 0 -1 0 -0 0 -0 -0 0 0 0 0 0 0 -0 0 -6 -14 -3 -0 0 0 0 0 0 0 0 0 0 0 0 0 0 0 0 -304 -383 -360 -308
0 0 -0 0 0 -1 -0 -0 0 -4 0 -12 0 -0 0 0 -0 0 0 0 -0 -0 -2 -1 -1 -6 0 0 0 0 0 0 0 0 0 0 0 0 0 0 0 -226 -295 -285 -265
Wind_Speed
29 30 31 31 32 33 34 35 35 36 36 36 37 37 38 40 43 38 45 37 29 33 34 30 24 23 24 25 24 21 31 31 29 23 22 21 25 24 25 25 27 24 16 15 7
29 30 31 32 33 34 34 35 36 36 36 36 37 38 39 41 40 42 42 37 37 36 33 30 31 25 27 28 26 27 33 32 28 27 23 25 26 36 34 29 28 28 19 20 10
30 31 32 33 34 35 35 36 36 36 37 37 37 37 38 39 38 32 21 22 28 33 36 32 31 31 35 30 30 32 38 32 36 32 31 33 35 33 37 44 31 30 33 22 22
31 32 33 34 35 36 36 37 37 37 37 38 38 36 36 31 36 24 24 32 33 33 31 34 33 36 41 41 33 41 38 37 40 37 34 38 37 37 40 40 39 34 32 34 39
33 34 35 36 37 37 38 38 38 38 38 37 36 34 31 34 38 35 41 38 32 27 31 35 38 38 45 42 40 49 45 40 41 42 40 42 47 46 43 40 43 42 39 40 38
34 34 35 37 37 38 38 39 39 39 38 36 33 30 31 42 29 30 33 34 31 30 29 30 34 37 39 44 42 41 44 51 48 47 43 43 50 47 46 40 36 37 41 37 37
34 35 35 37 38 38 39 39 39 37 35 33 30 28 32 42 31 34 38 37 35 35 33 29 34 30 36 39 41 46 53 50 49 43 46 38 59 56 45 42 44 40 41 42 43
34 35 36 38 38 39 39 41 41 39 33 27 23 26 37 31 31 33 31 34 31 30 30 31 30 35 35 32 37 42 46 60 57 47 39 33 75 45 34 34 43 47 44 43 42
36 37 38 39 39 39 40 40 39 32 26 22 25 26 34 31 29 25 22 31 30 26 26 25 25 33 33 40 43 42 57 54 55 42 36 38 75 50 45 42 47 49 47 48 51
37 38 40 39 39 39 39 37 34 27 27 25 24 34 32 39 40 36 40 32 29 28 29 29 30 35 37 37 53 47 48 46 47 37 33 42 68 52 47 48 54 53 52 51 52
38 39 40 40 39 37 33 32 38 33 32 32 35 34 40 37 39 37 29 31 30 26 34 30 39 47 42 42 43 41 40 45 39 35 36 43 60 54 46 47 52 54 52 47 43
39 40 40 39 38 32 28 32 33 30 38 31 28 29 33 32 36 35 23 28 28 33 30 34 49 40 36 36 45 47 49 47 40 40 38 42 53 49 43 42 41 42 39 38 42
39 39 39 38 33 27 30 29 29 28 27 30 27 26 32 29 32 34 22 24 32 36 35 39 34 40 43 41 45 43 46 47 46 40 43 46 59 52 46 41 39 40 41 39 36
39 38 36 38 25 29 27 28 29 20 27 27 29 24 32 29 25 27 17 22 28 35 36 36 37 38 39 47 47 53 39 41 39 39 51 36 66 55 53 51 44 37 39 38 38
39 36 31 26 24 28 26 29 25 19 31 28 25 31 38 31 31 25 24 20 34 39 33 39 31 31 39 38 36 44 40 44 42 46 43 41 43 62 37 47 38 25 29 48 51
38 27 27 19 22 20 25 27 19 25 26 26 29 37 36 31 32 30 23 18 25 29 36 41 36 36 34 33 31 30 32 37 40 39 49 41 34 62 43 49 50 45 37 39 39
19 20 19 16 22 24 28 24 25 27 23 24 32 37 33 32 31 28 27 23 22 28 29 32 37 40 36 35 34 32 31 34 38 42 46 34 34 39 23 22 29 30 31 32 35
16 17 15 13 17 24 26 25 29 23 20 21 28 26 26 32 30 30 25 21 20 18 25 31 31 30 30 36 34 32 32 34 40 38 40 41 38 39 42 43 37 34 31 33 36
26 21 18 18 18 22 27 29 26 23 19 22 25 21 21 26 27 26 23 20 19 18 20 23 26 20 19 22 24 29 36 33 35 35 37 37 54 56 44 39 37 35 32 35 35
23 19 20 20 19 24 26 26 23 18 15 18 16 16 18 17 27 26 22 20 22 19 20 20 25 21 21 22 26 29 25 34 35 40 40 40 45 50 32 43 41 38 35 34 31
23 20 21 20 20 24 26 23 21 16 19 16 15 14 18 12 11 17 20 24 21 25 25 23 24 24 22 25 26 28 32 33 34 39 42 43 44 33 39 40 30 32 34 35 35
24 21 21 19 21 23 25 22 19 19 17 13 11 14 15 12 10 7 10 23 22 24 24 22 24 30 30 29 31 31 32 30 40 43 47 45 53 35 32 27 32 35 34 34 12
25 18 18 21 24 25 22 21 19 22 18 15 12 12 12 16 16 6 26 24 26 21 21 22 24 27 27 23 24 32 33 36 37 38 49 49 51 28 24 28 29 31 30 22 8
24 23 20 20 22 24 25 22 23 19 13 17 11 14 20 8 4 11 25 25 25 25 26 20 23 27 32 30 29 33 33 33 38 46 49 60 57 50 41 34 34 33 30 18 9
25 22 22 21 21 20 20 19 23 22 15 14 13 15 5 18 19 16 18 32 31 30 28 12 23 27 31 34 36 40 41 44 46 46 48 51 53 43 41 39 36 36 33 13 9
26 24 22 17 17 20 20 21 21 20 17 14 12 7 9 5 6 22 21 23 28 27 22 14 18 26 31 32 34 41 42 44 48 49 53 52 56 42 38 36 35 33 19 11 10
25 21 19 18 18 20 20 20 19 16 14 12 5 12 13 10 10 17 19 22 23 27 25 21 19 15 23 24 31 40 45 45 47 46 48 54 47 38 41 39 34 26 21 16 12
Wind_Direction
323 320 317 314 311 308 307 306 306 304 301 301 300 299 298 295 290 284 269 274 277 275 274 273 272 269 268 266 266 265 262 261 263 265 267 276 273 278 301 304 310 320 322 331 12
324 322 320 317 315 313 311 308 307 307 308 306 301 300 300 298 292 281 278 274 273 272 270 266 262 264 264 263 262 259 259 260 263 263 271 273 283 278 287 295 295 296 321 333 346
329 327 324 321 319 317 315 313 310 308 307 308 308 306 303 300 294 288 296 294 282 276 264 266 263 261 260 261 256 259 259 261 265 267 271 275 278 284 281 276 282 288 295 314 311
332 329 325 323 321 319 317 316 314 312 309 307 306 309 309 305 285 293 289 291 289 283 263 257 258 255 256 254 257 261 263 262 266 270 275 274 279 279 278 277 277 290 293 294 288
333 330 328 326 324 321 319 315 314 313 312 311 309 308 310 296 287 290 286 288 290 285 268 253 250 253 253 259 258 259 262 267 270 270 273 277 274 277 276 279 280 284 287 285 289
331 327 325 324 322 320 319 316 315 315 313 313 313 312 306 291 301 297 295 288 284 278 275 256 257 253 262 257 255 263 265 265 268 269 272 277 275 274 274 278 284 285 282 284 286
328 325 323 323 321 320 320 320 322 326 323 320 318 315 304 295 301 297 291 286 279 272 269 268 255 257 258 262 263 262 264 266 265 269 269 280 271 267 275 279 280 279 280 281 282
328 327 325 327 326 324 325 324 323 325 329 332 331 319 306 310 305 297 296 289 281 270 265 267 264 261 259 266 266 262 263 261 264 265 272 273 252 272 280 279 276 275 279 281 283
333 333 330 330 334 333 329 327 327 341 348 348 334 325 310 316 306 303 309 297 287 271 264 266 264 256 258 255 261 260 258 261 266 268 270 261 254 272 274 278 277 275 278 280 282
335 338 338 336 338 339 340 343 349 355 356 350 341 322 318 309 302 294 290 291 289 272 259 255 256 252 251 247 250 257 258 264 265 270 268 267 263 273 275 275 273 274 277 281 283
338 337 338 341 343 346 356 358 352 354 349 338 328 320 316 314 307 289 291 289 285 269 251 251 249 245 246 249 256 264 265 264 269 273 271 270 268 271 277 276 274 275 278 282 285
337 339 342 344 344 357 5 359 355 350 344 348 342 336 323 323 310 303 284 273 274 267 265 252 248 252 255 257 256 258 261 263 272 271 276 275 271 275 278 277 279 279 280 281 282
337 340 344 348 353 11 3 5 5 7 351 353 3 355 344 339 313 308 274 270 268 265 261 255 259 254 254 256 255 258 259 261 265 274 274 277 271 273 275 278 280 280 278 279 283
339 344 351 349 15 6 8 8 5 16 352 354 358 358 350 357 332 332 303 277 268 264 261 259 259 260 258 253 254 256 262 263 267 267 266 275 268 272 272 274 276 279 278 280 282
342 349 355 6 9 7 7 4 8 23 348 356 0 337 320 339 335 336 316 294 270 262 259 253 261 261 254 256 256 259 261 259 262 263 269 269 274 262 279 274 277 264 262 270 257
349 3 0 15 12 11 7 5 24 4 356 356 357 329 317 334 328 317 322 316 290 271 258 255 260 262 259 259 259 262 263 259 257 261 260 263 266 260 273 265 256 267 274 272 273
356 6 9 21 12 12 8 18 8 6 6 3 356 343 328 325 323 326 316 295 290 268 260 263 258 254 257 258 257 257 256 253 252 251 255 265 258 234 270 286 270 270 269 272 273
310 14 29 26 21 14 16 17 9 12 11 5 0 355 359 341 316 320 314 307 300 296 273 259 255 252 254 251 251 252 246 247 249 252 255 252 258 258 235 246 250 259 272 275 268
14 28 31 28 28 24 19 16 16 15 15 8 4 9 12 2 333 319 316 301 300 300 277 266 257 266 260 259 246 251 246 249 259 261 259 255 249 248 242 246 250 263 269 268 259
23 30 32 27 33 21 21 19 19 20 13 13 21 25 17 23 335 321 323 310 294 304 292 278 264 272 269 266 257 254 255 246 247 247 250 254 251 238 248 240 248 263 270 272 284
28 31 31 30 25 24 19 19 14 21 22 23 25 21 15 25 35 7 345 308 302 296 287 281 271 264 273 261 258 254 250 250 250 247 247 250 247 255 247 245 263 274 278 279 277
29 30 27 32 23 25 17 18 18 30 23 27 31 29 25 33 36 56 28 312 326 309 283 282 274 266 265 268 268 263 254 250 244 243 244 250 242 253 251 265 271 277 285 293 298
26 32 37 32 23 19 20 20 29 25 28 36 28 26 30 17 11 36 297 299 283 324 297 285 275 270 271 274 271 258 256 249 250 250 242 242 236 255 268 270 278 283 290 299 285
28 26 28 34 30 23 19 24 24 24 36 31 50 39 11 10 25 342 281 287 287 257 262 300 281 272 268 272 270 262 256 250 247 243 244 240 242 247 257 264 275 282 285 286 263
29 30 27 18 21 17 21 25 19 25 36 34 39 28 304 9 358 355 334 295 286 260 239 314 291 283 278 277 269 262 256 249 245 244 243 242 245 251 253 258 271 278 273 268 234
26 24 23 14 24 22 25 27 22 18 24 31 23 338 291 317 286 264 251 249 289 275 281 321 315 281 280 282 273 265 257 251 246 244 243 245 243 247 252 257 270 280 271 253 213
24 27 25 24 25 24 25 25 16 14 40 26 309 282 282 274 270 263 243 232 214 227 240 217 204 198 271 261 286 272 254 247 243 243 240 240 244 247 249 251 265 271 262 252 210